Temp
8 9 9 9 9 9 9 8 8 8 7 7 7 7 8 8 8 7 7 8 8 8 8 8 8 8 8 8 8 8 8 8 8 8 8 8 8 8 9 9 9 9 9
8 8 9 9 9 9 9 9 8 8 7 7 7 7 7 7 7 8 8 7 7 7 8 8 8 8 8 8 8 8 8 8 8 8 8 8 8 8 9 9 9 9 8
8 8 8 8 9 9 9 9 9 8 8 7 7 7 7 7 7 7 8 8 8 8 8 8 8 8 8 8 8 8 8 8 8 8 8 9 8 8 8 9 9 8 8
8 8 8 8 8 8 8 8 8 8 8 8 8 7 7 7 7 7 7 7 8 8 7 8 8 8 8 8 8 8 8 8 8 8 8 9 8 8 8 8 9 8 8
8 8 8 8 8 8 8 8 8 8 8 8 8 8 7 7 7 7 7 7 7 8 7 7 7 8 8 8 8 8 8 8 9 8 8 8 8 8 8 8 8 8 8
8 8 8 8 8 8 8 7 7 7 7 7 7 7 7 7 7 7 7 7 8 7 7 7 7 7 8 8 8 8 8 8 8 8 8 8 7 7 6 6 7 7 6
8 7 7 7 7 7 7 7 7 7 7 7 7 7 7 7 7 7 7 7 7 7 7 7 7 6 7 8 8 8 8 8 8 8 8 7 6 6 6 6 6 5 5
8 7 7 7 7 7 6 6 6 6 6 6 6 6 7 7 7 7 7 7 7 7 7 7 7 6 7 7 8 8 8 8 7 7 7 6 6 5 6 6 5 5 5
8 8 7 7 7 7 7 6 6 6 5 5 5 6 6 6 6 6 6 6 6 6 6 6 6 6 7 7 7 7 8 8 7 6 5 5 5 4 5 5 4 5 6
7 7 7 7 7 7 7 7 7 7 6 6 5 5 5 6 6 6 6 6 6 6 6 6 6 6 6 7 7 7 7 7 7 6 5 4 4 3 3 4 4 5 6
7 7 7 7 7 7 7 7 7 7 7 7 6 6 5 5 5 6 6 6 6 6 6 6 6 6 6 6 6 7 6 7 7 6 5 4 5 4 3 3 4 6 7
7 7 7 6 6 7 7 7 7 7 7 7 7 7 6 6 5 5 5 5 5 5 6 6 6 6 5 5 5 5 6 6 6 6 5 4 4 4 4 5 6 6 7
7 7 7 6 6 6 6 6 7 7 6 6 6 6 6 6 6 6 5 5 5 5 5 5 6 6 5 5 5 5 5 5 5 6 6 6 5 4 4 6 6 6 6
7 7 7 7 6 6 6 6 6 6 6 6 6 6 6 6 6 6 6 5 5 5 5 5 5 5 5 5 5 5 4 5 5 6 6 6 6 6 6 6 6 7 7
7 7 7 7 6 6 6 6 6 6 6 6 6 6 6 6 6 6 6 6 5 5 5 5 5 5 5 5 4 5 4 5 5 5 6 6 6 6 7 6 7 7 7
6 6 6 6 6 6 6 5 5 5 5 5 6 6 5 5 5 5 5 5 6 5 5 5 5 5 4 4 5 4 4 4 4 5 5 5 6 6 6 6 7 7 7
6 6 6 6 6 6 6 6 5 5 6 6 6 5 5 5 5 5 5 5 5 5 5 4 4 4 4 4 4 4 5 4 4 4 5 5 5 5 6 6 6 7 7
6 6 6 6 6 6 6 6 5 5 5 5 5 5 6 5 5 5 4 4 4 5 5 5 4 4 4 4 4 4 4 4 4 4 5 5 5 5 5 6 6 6 5
5 6 5 5 5 5 5 5 5 5 5 5 5 5 5 5 5 4 4 4 4 4 4 4 5 5 4 4 4 4 4 4 4 3 4 5 5 5 4 5 5 6 5
5 5 5 5 5 5 5 5 5 5 5 5 5 5 5 5 5 5 4 4 4 4 4 4 4 4 4 4 4 4 3 3 3 3 3 3 3 4 4 4 4 5 5
4 4 5 5 5 5 4 4 4 4 4 4 4 4 4 4 4 4 4 4 4 4 4 3 4 4 4 4 4 4 3 4 3 3 3 2 3 3 3 3 3 4 5
2 2 3 3 4 4 4 4 4 4 3 3 3 3 3 4 4 4 4 4 3 3 3 3 3 3 4 4 4 4 3 3 3 3 2 3 2 3 3 3 3 3 4
1 1 2 2 2 3 3 3 3 3 2 2 2 3 3 3 3 3 3 3 3 3 3 3 3 3 3 3 3 3 4 4 4 3 2 2 2 2 3 3 3 2 2
1 2 1 1 1 2 2 2 2 2 2 2 2 2 2 2 2 3 3 2 2 2 2 2 2 2 2 2 2 3 3 3 2 3 3 2 2 2 3 3 3 2 2
1 1 2 1 -0 0 1 0 0 1 1 1 2 2 2 2 2 2 2 2 2 2 2 2 2 2 1 1 1 1 2 2 1 1 1 2 2 2 2 2 2 2 2
-1 -0 -0 -0 -2 -2 -2 -1 -1 -0 0 1 1 1 1 1 1 2 2 2 2 2 1 1 1 2 1 1 1 1 1 1 1 1 0 1 1 1 1 1 1 2 2
Height
3164 3164 3165 3166 3167 3167 3168 3169 3170 3171 3172 3172 3173 3174 3175 3176 3177 3177 3178 3178 3179 3179 3179 3180 3179 3179 3178 3178 3178 3178 3178 3178 3178 3178 3179 3180 3181 3183 3183 3185 3186 3187 3188
3164 3164 3165 3166 3167 3168 3168 3169 3169 3171 3171 3172 3173 3174 3174 3175 3176 3177 3177 3178 3178 3179 3180 3179 3179 3179 3179 3178 3178 3178 3178 3178 3179 3179 3180 3181 3183 3183 3184 3186 3187 3188 3189
3163 3164 3165 3166 3167 3168 3169 3169 3170 3170 3171 3172 3172 3173 3173 3174 3175 3176 3177 3177 3178 3178 3178 3179 3179 3179 3178 3178 3178 3177 3177 3178 3179 3180 3181 3183 3184 3185 3186 3187 3188 3189 3190
3162 3164 3165 3165 3167 3167 3168 3168 3169 3170 3170 3171 3171 3172 3173 3174 3174 3175 3176 3176 3177 3177 3177 3177 3178 3178 3178 3178 3178 3178 3177 3178 3178 3180 3182 3184 3185 3186 3187 3188 3189 3190 3191
3163 3163 3164 3165 3165 3166 3167 3167 3168 3169 3169 3170 3170 3171 3172 3172 3173 3174 3175 3176 3176 3177 3177 3177 3177 3177 3178 3178 3178 3178 3177 3177 3179 3180 3181 3184 3185 3187 3188 3189 3190 3191 3192
3160 3161 3162 3162 3163 3164 3165 3166 3166 3167 3168 3168 3169 3170 3170 3171 3171 3172 3173 3174 3175 3176 3176 3176 3177 3177 3177 3177 3177 3177 3177 3176 3179 3181 3182 3184 3185 3187 3189 3190 3190 3191 3192
3157 3159 3158 3159 3159 3160 3161 3162 3163 3164 3165 3167 3167 3168 3168 3169 3170 3170 3171 3172 3174 3174 3175 3176 3176 3177 3176 3176 3177 3177 3176 3177 3178 3180 3181 3183 3187 3189 3191 3192 3193 3193 3194
3154 3156 3155 3156 3156 3156 3158 3158 3160 3161 3162 3164 3165 3166 3166 3167 3168 3169 3169 3171 3172 3173 3174 3174 3175 3176 3176 3176 3176 3177 3176 3176 3178 3179 3181 3183 3186 3188 3190 3191 3193 3193 3193
3151 3153 3153 3153 3154 3154 3155 3155 3156 3157 3158 3160 3161 3163 3164 3165 3166 3167 3168 3169 3170 3171 3172 3173 3174 3175 3176 3176 3176 3176 3176 3177 3177 3178 3180 3183 3185 3186 3188 3190 3191 3191 3193
3149 3150 3150 3151 3151 3152 3152 3153 3153 3154 3154 3155 3157 3158 3160 3162 3163 3164 3165 3167 3168 3169 3170 3171 3173 3174 3174 3175 3176 3176 3176 3177 3178 3179 3180 3183 3185 3185 3187 3188 3189 3190 3192
3148 3147 3147 3147 3148 3149 3150 3150 3150 3151 3152 3152 3153 3154 3156 3158 3160 3161 3162 3164 3166 3167 3168 3169 3171 3172 3173 3174 3175 3175 3176 3176 3177 3178 3180 3181 3183 3184 3185 3186 3187 3189 3191
3145 3145 3145 3145 3146 3146 3147 3148 3148 3148 3148 3149 3150 3151 3151 3153 3155 3157 3158 3160 3162 3163 3165 3166 3168 3169 3171 3172 3173 3174 3175 3175 3177 3177 3178 3180 3182 3181 3182 3182 3185 3187 3188
3143 3143 3143 3142 3142 3143 3143 3144 3145 3145 3146 3145 3146 3147 3148 3149 3150 3152 3154 3156 3158 3160 3162 3163 3165 3167 3169 3170 3172 3172 3173 3174 3175 3176 3177 3177 3179 3180 3181 3181 3183 3184 3187
3142 3141 3140 3140 3140 3140 3140 3140 3141 3141 3142 3142 3142 3142 3143 3145 3146 3147 3149 3151 3153 3155 3157 3159 3161 3163 3165 3167 3168 3169 3170 3172 3173 3174 3175 3175 3176 3178 3178 3180 3180 3182 3184
3139 3138 3137 3137 3136 3136 3137 3137 3137 3138 3138 3139 3139 3139 3138 3139 3141 3143 3144 3145 3148 3150 3152 3154 3157 3159 3160 3162 3164 3166 3168 3167 3169 3170 3171 3172 3173 3174 3176 3177 3178 3179 3181
3135 3135 3134 3134 3134 3133 3133 3133 3133 3133 3134 3134 3135 3135 3135 3135 3135 3137 3139 3140 3143 3145 3148 3149 3151 3154 3156 3157 3159 3162 3164 3164 3164 3167 3167 3169 3170 3171 3172 3173 3174 3176 3178
3132 3131 3132 3131 3130 3130 3129 3129 3128 3128 3129 3130 3130 3130 3131 3131 3131 3132 3133 3135 3137 3139 3141 3143 3145 3147 3150 3151 3153 3155 3158 3160 3160 3161 3163 3165 3166 3167 3169 3169 3170 3171 3173
3127 3126 3126 3126 3126 3125 3125 3125 3125 3124 3124 3124 3125 3125 3125 3126 3126 3127 3128 3130 3130 3132 3134 3137 3139 3141 3143 3145 3148 3149 3151 3153 3155 3155 3157 3159 3162 3164 3165 3166 3167 3167 3168
3121 3120 3121 3121 3121 3120 3119 3119 3119 3119 3120 3119 3119 3120 3119 3120 3121 3121 3122 3124 3124 3125 3127 3129 3132 3134 3136 3139 3142 3144 3145 3146 3148 3149 3150 3154 3157 3160 3161 3162 3163 3164 3165
3114 3114 3113 3114 3115 3114 3113 3113 3113 3113 3114 3114 3114 3114 3114 3114 3115 3115 3116 3117 3117 3118 3120 3121 3124 3126 3129 3132 3134 3137 3138 3140 3141 3142 3144 3147 3150 3153 3156 3157 3159 3160 3161
3106 3106 3106 3106 3107 3106 3106 3106 3106 3106 3106 3107 3108 3108 3108 3107 3107 3108 3109 3110 3111 3111 3112 3114 3115 3118 3120 3123 3126 3128 3129 3130 3133 3135 3137 3138 3141 3146 3149 3151 3154 3155 3156
3101 3099 3098 3097 3098 3098 3097 3098 3097 3099 3100 3100 3100 3101 3101 3101 3099 3100 3101 3102 3103 3104 3105 3105 3107 3109 3111 3115 3116 3120 3120 3123 3123 3127 3130 3130 3133 3139 3143 3145 3147 3150 3151
3089 3090 3089 3088 3087 3088 3088 3088 3088 3090 3091 3092 3093 3093 3094 3094 3093 3093 3093 3093 3095 3096 3097 3098 3098 3101 3102 3105 3106 3110 3109 3111 3116 3119 3122 3124 3125 3130 3134 3137 3140 3142 3145
3073 3068 3074 3076 3076 3076 3076 3077 3078 3079 3082 3084 3084 3085 3085 3085 3086 3085 3086 3086 3086 3087 3088 3090 3091 3091 3093 3096 3098 3100 3101 3103 3104 3108 3113 3115 3119 3121 3124 3129 3132 3134 3137
3067 3065 3063 3059 3062 3065 3065 3067 3068 3070 3072 3074 3075 3076 3077 3077 3077 3077 3077 3078 3078 3079 3079 3081 3082 3083 3084 3086 3088 3091 3092 3094 3097 3098 3100 3107 3110 3113 3114 3120 3123 3126 3128
3055 3055 3055 3054 3054 3053 3056 3058 3059 3061 3062 3064 3066 3066 3067 3069 3069 3070 3069 3069 3070 3070 3071 3071 3072 3074 3075 3075 3078 3080 3082 3085 3087 3090 3092 3096 3099 3104 3108 3111 3114 3117 3119
Wind_Speed
1 2 2 2 3 5 5 6 7 8 8 8 7 7 7 7 7 8 7 5 5 4 3 2 3 4 4 3 2 2 2 2 5 8 9 9 11 11 12 12 12 11 11
2 4 1 1 3 4 3 4 5 6 7 6 6 5 6 7 6 5 6 6 5 3 1 1 2 2 3 2 0 1 2 3 5 8 9 10 10 12 13 12 13 12 12
7 4 3 3 4 4 1 3 3 5 6 7 7 6 6 6 6 4 4 4 5 4 2 1 1 1 2 0 0 1 3 5 6 8 9 10 10 11 11 12 12 12 11
3 4 4 4 4 4 3 5 4 4 5 6 7 7 7 7 6 4 3 3 3 3 3 2 1 1 2 1 0 1 3 5 8 10 11 11 11 11 11 11 12 12 11
4 4 5 6 7 8 8 7 7 7 7 7 7 8 9 9 7 7 7 6 5 4 4 3 2 2 3 2 1 1 3 5 6 10 12 12 12 11 11 10 11 11 11
13 11 12 14 14 14 13 12 12 11 9 10 9 9 9 10 9 8 7 7 7 5 5 4 3 2 3 4 3 3 4 6 6 10 14 14 12 10 6 4 7 8 10
15 12 14 16 17 17 17 16 15 14 13 13 13 12 10 10 11 10 9 7 6 6 6 4 6 4 4 5 5 4 6 7 7 10 16 17 14 12 13 10 6 13 12
13 10 13 14 16 19 19 19 18 18 17 15 15 14 13 12 12 12 11 9 8 9 8 6 5 5 5 5 5 6 7 9 9 10 15 20 17 18 18 15 14 19 18
12 11 12 12 13 13 16 18 20 20 19 19 18 16 15 15 14 13 13 11 10 10 9 8 7 5 4 5 5 5 7 8 10 11 12 16 19 19 21 22 16 16 16
14 13 13 13 14 14 12 13 15 16 19 22 22 21 19 17 16 16 15 14 12 12 11 10 9 7 6 5 4 4 6 7 10 10 10 11 14 16 17 19 19 18 15
12 14 15 15 13 12 12 13 14 13 14 16 19 24 25 22 20 18 18 17 16 15 13 13 11 11 10 8 6 6 4 5 10 13 13 14 14 16 13 18 21 19 17
9 10 12 13 15 16 16 14 15 14 15 15 15 16 20 25 25 23 22 21 19 18 18 17 15 13 13 10 9 7 8 6 7 12 17 17 17 17 16 21 18 18 18
11 9 8 10 12 14 15 15 16 16 16 16 16 16 17 19 23 27 27 25 23 21 19 19 18 16 15 14 11 10 9 8 9 9 12 15 19 17 19 16 17 18 18
12 12 10 8 10 11 12 13 15 16 16 16 17 18 18 19 19 22 27 29 27 24 23 23 21 19 19 18 16 19 13 14 12 12 12 12 14 17 15 16 18 19 18
13 14 13 11 10 10 11 12 13 15 16 17 17 17 19 19 19 19 20 23 26 26 27 24 22 22 21 21 21 22 17 18 16 14 12 11 11 15 16 17 19 19 18
17 16 16 14 13 12 13 13 13 14 15 17 18 19 19 20 21 20 21 23 24 26 26 26 25 24 24 24 24 24 23 25 23 18 15 12 12 13 16 18 20 21 21
20 20 19 18 17 15 15 15 15 15 14 15 16 18 20 22 23 23 22 23 25 27 29 28 28 28 27 26 27 27 27 25 24 24 23 20 15 13 16 17 20 22 22
23 23 24 22 20 20 19 18 18 17 17 18 18 18 18 20 23 25 25 25 27 28 30 33 31 30 30 29 27 28 28 28 27 28 30 26 19 16 17 18 19 20 20
26 27 27 26 25 25 24 22 22 22 21 21 20 20 21 20 21 24 26 27 28 30 31 33 35 36 33 33 30 29 31 29 28 30 35 35 28 21 19 19 20 21 20
27 28 29 29 28 29 29 27 26 26 25 24 23 22 23 23 22 22 24 25 28 29 32 33 34 36 37 37 34 34 32 34 33 33 32 33 35 28 25 21 23 21 22
31 30 31 32 31 32 32 31 30 29 28 27 26 24 25 24 24 23 23 24 27 29 30 32 34 36 38 38 41 35 39 39 36 37 38 36 36 28 23 28 26 24 23
27 34 35 33 33 33 34 34 34 32 30 28 28 27 27 26 26 26 25 25 26 28 30 30 32 34 37 39 41 43 42 38 38 41 36 40 37 35 35 31 30 26 25
22 27 34 39 37 37 37 37 36 34 31 29 29 28 27 26 25 25 26 27 28 29 29 30 31 32 34 37 41 43 48 50 45 38 41 41 35 41 36 30 33 30 26
34 35 30 36 39 38 38 37 37 35 32 29 30 29 28 28 26 27 25 27 29 31 32 31 31 32 34 35 38 42 46 46 46 51 40 38 44 41 39 41 32 36 39
36 37 34 31 30 33 34 32 32 32 32 31 30 31 29 29 26 26 27 27 29 31 33 34 34 35 35 36 37 38 41 45 42 41 52 52 41 40 41 32 38 37 37
30 30 29 27 23 22 27 29 31 32 32 31 29 30 28 27 26 26 27 26 29 32 34 35 35 36 36 38 39 39 41 44 45 48 51 44 47 42 43 38 43 40 35
Wind_Direction
204 145 114 91 121 143 152 167 177 178 170 171 168 161 162 154 154 151 144 138 126 128 146 195 243 255 269 286 333 22 61 119 138 135 134 134 131 135 136 138 135 135 131
209 160 149 194 178 167 171 179 185 197 193 192 184 189 175 171 166 168 165 173 171 169 196 245 282 257 240 189 75 87 111 140 150 143 141 139 143 146 143 142 137 133 126
209 212 247 233 204 189 163 229 225 206 212 213 212 205 189 191 181 203 197 188 200 201 207 212 225 177 181 157 63 136 149 157 163 155 151 148 148 149 145 143 141 138 133
165 218 221 197 203 220 254 243 236 237 240 237 229 224 217 216 203 203 214 202 235 230 230 236 222 176 198 219 253 178 164 164 170 163 154 157 148 147 148 149 145 145 145
224 235 236 227 229 237 247 244 242 246 248 249 242 235 232 237 230 224 221 235 264 247 223 235 246 214 200 212 232 221 181 184 169 166 161 163 143 147 149 152 151 154 153
265 254 252 251 248 247 248 247 244 248 249 252 248 249 239 238 243 239 232 246 254 227 216 237 248 230 217 221 225 215 203 197 168 158 167 160 134 143 133 152 167 140 150
267 267 258 249 247 246 245 242 241 241 247 250 250 253 249 242 239 239 235 240 229 207 216 234 253 264 242 223 225 220 211 205 180 171 165 148 137 155 147 156 156 140 155
279 264 258 255 251 247 246 243 246 246 247 247 246 248 253 248 241 240 239 233 219 207 211 217 227 271 264 243 229 223 221 207 193 178 174 159 157 177 162 170 188 183 188
281 274 264 267 264 259 256 253 251 250 248 243 244 247 250 248 247 244 241 239 230 218 219 221 218 232 252 253 236 234 229 220 201 194 188 179 178 195 189 190 193 202 192
290 282 277 268 260 258 257 257 255 254 254 251 246 245 246 249 249 248 245 243 239 236 229 226 232 232 230 233 241 238 244 228 206 200 187 189 214 210 214 221 211 214 207
282 283 284 281 273 264 255 253 254 255 254 253 250 247 244 242 243 245 247 244 239 237 236 243 241 241 234 233 238 237 239 244 222 195 185 219 234 227 238 235 222 221 222
291 290 289 283 278 278 273 261 261 256 255 256 256 252 247 243 241 241 243 244 243 241 240 242 245 241 242 242 234 229 238 241 243 234 212 205 215 250 251 232 225 223 225
302 301 288 280 281 279 278 275 267 262 261 262 259 258 254 250 245 241 241 243 244 244 246 247 249 247 245 245 239 248 246 242 255 259 250 238 231 237 240 240 228 229 232
298 300 303 290 280 279 278 275 275 273 268 263 264 261 255 253 252 251 244 239 241 244 244 244 245 245 244 242 235 237 254 257 248 255 254 251 248 239 241 242 241 237 235
294 295 299 297 290 287 282 278 274 275 273 267 264 263 266 262 258 254 254 249 243 241 242 243 244 246 246 244 239 239 249 251 256 255 260 257 253 253 254 250 249 247 243
284 285 284 288 287 287 282 281 280 278 275 273 267 263 261 264 262 256 256 256 248 241 243 243 245 244 246 247 244 240 243 250 258 254 259 263 260 254 256 253 253 252 249
279 275 274 274 276 277 278 280 278 277 279 278 275 269 265 263 262 263 258 253 255 250 245 247 244 244 243 246 248 248 245 245 249 251 257 256 257 263 261 257 255 254 249
278 277 273 274 276 277 277 278 279 275 274 276 276 276 274 269 267 264 257 256 254 251 249 246 246 243 246 245 246 250 251 250 247 253 252 255 246 256 267 266 262 256 254
276 273 272 273 274 272 271 272 275 276 277 276 277 278 276 273 270 268 266 258 253 254 254 251 250 247 246 246 246 247 250 250 250 250 255 258 256 256 262 272 271 263 251
274 272 272 272 271 271 269 269 269 269 269 270 271 272 275 275 272 268 269 267 263 256 254 255 253 250 248 247 248 244 244 248 250 250 256 255 257 261 265 264 273 266 252
277 274 271 270 270 268 269 267 268 266 264 267 267 269 275 277 276 273 271 268 266 264 258 254 254 253 251 247 246 248 247 245 247 250 245 253 259 257 251 266 265 259 251
278 280 280 275 271 266 265 265 265 263 261 261 262 269 273 275 277 279 276 271 269 268 265 261 256 252 252 249 247 244 245 246 251 249 248 256 262 254 259 256 265 257 248
253 268 275 275 271 265 264 263 263 261 257 256 260 265 269 271 275 278 277 274 269 266 265 264 261 257 253 249 248 247 246 245 242 252 240 253 244 258 252 253 258 245 250
244 239 254 266 263 262 262 260 258 256 254 250 255 259 265 269 272 273 277 276 271 268 266 263 262 260 257 251 248 247 248 250 247 245 247 244 252 251 254 259 248 252 275
253 252 247 239 246 258 256 253 251 252 254 251 250 258 263 266 267 271 272 274 276 270 267 265 263 261 258 257 250 247 247 249 245 257 251 246 246 252 246 258 259 264 267
244 244 247 245 241 239 252 254 251 250 249 247 248 258 263 262 264 265 269 273 271 271 268 265 263 262 259 256 252 248 246 246 248 247 250 246 252 250 249 254 249 256 245